Lapse_Rate
7.0 6.9 7.0 7.1 7.2 8.0 7.8 7.3 7.3 7.3 7.2 7.3 7.3 7.0 7.0 6.9 7.0 7.0 7.1 7.1 7.1 7.2 7.2 7.1 6.9 6.6 6.4 6.2 6.1 6.2 6.3 6.2 6.2 6.3 6.3 6.2 6.0 5.9 5.9 5.9 6.0 5.9 6.0 5.9 5.9 5.8 5.8 5.8 5.8
7.1 7.0 7.0 7.1 7.8 8.5 8.0 7.5 7.4 7.1 7.3 7.4 7.4 7.2 7.1 7.1 7.3 7.1 7.0 7.0 7.1 7.1 7.2 7.2 7.1 6.9 6.7 6.4 6.2 6.1 6.1 6.1 6.1 6.2 6.2 6.2 6.1 6.1 6.0 6.1 6.2 6.0 6.1 6.1 6.0 6.0 5.9 5.9 5.8
7.0 7.0 6.9 7.3 7.9 8.5 8.0 7.4 7.2 7.5 7.4 7.3 7.0 7.2 6.9 7.1 7.2 7.2 7.1 7.1 7.1 7.1 7.2 7.2 7.2 7.1 7.0 6.9 6.8 6.6 6.4 6.3 6.3 6.2 6.3 6.4 6.4 6.5 6.4 6.4 6.4 6.2 6.2 6.2 6.2 6.2 6.1 6.1 6.1
7.0 7.0 7.1 7.5 7.9 7.4 7.5 7.2 7.0 7.3 7.4 7.4 7.2 7.0 7.2 7.1 7.0 7.0 7.0 7.1 7.1 7.1 7.1 7.1 7.1 7.1 7.2 7.1 7.0 6.9 6.8 6.6 6.6 6.6 6.5 6.5 6.6 6.5 6.6 6.6 6.7 6.6 6.6 6.6 6.5 6.4 6.4 6.4 6.5
7.0 7.1 7.3 7.4 7.2 7.0 7.2 6.9 6.9 6.9 7.1 7.1 7.2 6.9 7.2 7.1 7.0 7.0 6.9 6.9 6.9 6.9 6.9 6.9 6.9 6.9 6.7 6.7 6.6 6.8 6.8 6.8 6.7 6.7 6.6 6.6 6.6 6.7 6.6 6.7 6.7 6.6 6.7 6.7 6.7 6.6 6.6 6.6 6.6
6.8 7.0 7.6 7.6 7.4 7.2 7.0 7.1 7.0 6.8 7.1 7.2 7.0 6.8 7.2 7.1 7.0 7.0 6.8 6.8 6.7 6.7 6.7 6.8 6.9 6.9 6.8 6.8 6.7 6.5 6.6 6.5 6.4 6.5 6.8 6.7 6.7 6.6 6.7 6.8 6.8 6.7 6.6 6.6 6.7 6.7 6.7 6.7 6.7
6.9 6.9 7.7 7.8 7.3 6.9 6.9 7.1 6.9 6.7 6.7 7.0 6.9 6.6 7.1 7.0 7.0 6.9 6.9 6.9 6.9 6.8 6.7 6.6 6.6 6.7 6.8 6.8 6.9 6.9 6.8 6.7 6.6 6.4 6.4 6.5 6.5 6.7 6.8 6.8 6.8 6.8 6.7 6.6 6.7 6.7 6.7 6.6 6.6
7.2 7.1 7.2 7.4 7.3 7.1 7.1 7.1 7.0 6.8 6.7 7.1 7.1 6.6 6.7 6.8 6.9 6.7 6.7 6.7 6.8 6.9 6.9 6.9 6.9 6.9 6.7 6.6 6.7 6.8 6.9 7.0 7.0 6.9 6.8 6.7 6.7 6.8 6.7 6.8 6.8 6.8 6.8 6.7 6.7 6.6 6.6 6.5 6.6
7.2 7.0 7.4 7.3 7.2 7.1 7.2 7.0 7.0 7.0 6.9 7.1 7.1 7.2 7.0 7.0 6.9 6.9 6.9 6.9 6.8 6.7 6.7 6.7 6.7 6.7 6.8 6.9 6.8 6.6 6.6 6.6 6.6 6.5 6.5 6.6 6.5 6.6 6.7 6.9 6.9 6.8 6.8 6.8 6.7 6.7 6.7 6.6 6.5
7.1 7.1 7.3 7.0 6.8 6.7 7.1 6.9 7.0 7.0 7.1 7.2 7.2 7.2 7.1 7.1 7.0 6.9 6.8 6.7 6.7 6.7 6.7 6.7 6.7 6.6 6.6 6.6 6.7 6.8 6.8 6.6 6.6 6.6 6.5 6.5 6.3 5.9 6.2 6.8 6.6 6.7 6.7 6.8 6.8 6.8 6.7 6.6 6.6
7.2 7.0 7.1 7.2 7.1 7.0 7.0 6.9 7.0 7.0 7.0 7.0 7.2 7.3 7.3 7.1 6.9 6.8 6.8 6.8 6.7 6.6 6.6 6.6 6.7 6.7 6.6 6.5 6.6 6.7 6.8 6.8 6.6 6.6 6.3 6.1 6.3 6.6 6.5 6.5 6.6 6.6 6.7 6.7 6.7 6.7 6.8 6.7 6.8
7.0 7.0 7.0 7.0 6.9 6.9 6.9 7.0 7.0 7.1 6.8 7.2 7.3 7.2 7.2 7.2 7.0 6.9 6.8 6.7 6.7 6.6 6.6 6.6 6.6 6.6 6.5 6.3 6.2 6.2 6.4 6.6 6.6 6.5 6.4 5.9 5.5 5.4 6.2 6.4 6.4 6.5 6.6 6.7 6.6 6.7 6.7 6.5 6.6
6.8 6.9 6.9 6.8 6.8 6.8 7.0 6.8 6.9 7.2 7.2 7.1 7.1 7.2 7.1 7.0 6.8 6.8 6.7 6.6 6.6 6.6 6.5 6.5 6.5 6.4 6.3 6.2 6.3 5.8 5.7 5.8 6.0 6.1 6.0 6.0 5.8 5.1 5.2 5.7 5.6 5.7 6.0 6.4 6.6 6.6 6.4 6.5 6.7
6.9 6.8 6.8 6.9 6.9 6.9 7.0 6.7 6.8 7.0 7.2 7.0 7.0 6.9 6.8 6.6 6.5 6.5 6.6 6.6 6.6 6.6 6.5 6.4 6.2 6.2 6.2 6.4 6.6 6.6 6.4 6.0 5.6 5.6 5.5 5.5 5.6 5.6 5.7 5.7 5.8 5.8 5.8 5.6 5.7 6.2 6.3 6.4 6.4
6.7 6.6 6.7 6.9 6.9 6.8 6.8 6.8 7.2 6.8 7.0 7.0 6.9 6.7 6.5 6.4 6.4 6.4 6.4 6.5 6.7 6.6 6.6 6.5 6.5 6.5 6.4 6.3 6.4 6.5 6.3 6.3 6.3 6.0 5.6 5.3 5.2 5.2 5.2 5.1 5.0 5.0 5.0 5.0 4.9 5.1 5.3 5.7 5.9
6.5 6.5 6.6 6.7 7.0 6.9 6.8 6.9 6.9 7.0 6.9 7.0 6.7 6.5 6.4 6.4 6.3 6.2 6.3 6.4 6.3 6.3 6.4 6.3 6.2 6.1 6.2 6.3 6.2 6.1 5.9 5.8 5.7 5.7 5.7 5.7 5.9 5.9 5.6 5.3 5.1 4.6 4.4 4.3 4.2 4.7 4.1 4.7 4.9
6.3 6.7 6.8 6.6 6.8 6.8 6.7 6.8 6.7 6.6 6.6 6.7 6.5 6.5 6.4 6.2 6.1 6.0 6.0 5.9 6.0 6.1 6.2 6.3 6.4 6.6 6.6 6.4 6.3 6.1 6.0 5.9 5.8 5.6 5.5 5.7 5.9 5.9 5.9 5.9 5.9 5.1 4.6 4.4 4.7 4.7 4.8 4.6 5.1
7.1 6.5 6.7 6.8 6.4 6.7 6.5 6.6 6.3 6.2 6.2 6.3 6.2 6.3 6.2 6.1 6.0 6.0 5.9 5.9 5.9 5.9 6.0 6.2 6.4 6.5 6.6 6.6 6.5 6.6 6.4 6.3 6.1 6.1 5.9 5.6 5.7 5.8 5.8 5.9 5.9 5.7 5.5 5.4 5.3 5.3 5.3 5.4 5.5
6.3 6.4 6.6 6.8 6.4 6.3 6.5 6.2 6.3 5.9 6.0 6.2 6.0 6.2 6.2 6.3 6.1 5.9 5.9 5.9 5.7 5.9 5.9 6.0 6.1 6.3 6.4 6.4 6.3 6.2 6.2 6.3 6.1 6.1 6.0 6.2 6.2 6.1 5.8 5.5 5.5 5.4 5.3 5.4 5.5 5.5 5.4 5.5 5.6
6.5 6.2 6.4 6.5 5.9 6.1 6.1 5.7 6.3 6.0 5.7 6.1 5.9 6.0 6.1 6.0 5.9 5.9 6.0 5.9 5.8 5.8 5.9 6.1 6.2 6.0 6.0 6.2 6.2 5.9 5.9 6.0 6.1 6.0 6.1 6.0 5.9 5.8 5.8 5.7 5.5 5.4 5.3 5.3 5.4 5.4 5.4 5.7 5.9
6.7 6.1 6.4 6.4 5.7 5.7 5.6 5.2 6.0 6.7 6.1 5.8 6.3 5.9 6.2 6.0 5.9 5.9 6.0 6.1 6.0 5.9 5.8 5.7 5.6 5.7 5.8 5.8 5.9 5.8 5.9 6.0 6.0 5.9 5.9 5.8 5.8 5.6 5.7 5.5 5.4 5.3 5.4 5.5 5.6 5.8 6.0 6.2 6.4
6.2 6.2 6.4 6.2 5.4 5.9 5.1 5.6 6.1 5.9 6.3 6.2 6.4 6.3 6.4 6.2 6.0 5.8 5.8 5.9 5.9 5.9 5.8 5.7 5.6 5.5 5.6 5.7 5.6 5.6 5.7 5.8 5.8 5.7 5.7 5.6 5.5 5.4 5.4 5.5 5.5 5.7 5.7 5.8 5.9 6.1 6.3 6.5 6.4
6.1 6.1 5.8 5.8 5.3 5.0 5.3 4.7 5.5 5.9 5.7 6.9 6.6 6.5 6.6 6.6 6.4 6.2 6.1 6.0 5.9 5.9 5.7 5.5 5.5 5.5 5.6 5.4 5.6 5.7 5.7 5.6 5.5 5.5 5.5 5.4 5.3 5.4 5.5 5.6 5.7 5.9 6.0 6.1 6.3 6.5 6.5 6.4 6.5
6.0 5.9 5.7 5.3 4.9 4.9 5.0 5.3 5.5 5.9 6.7 6.5 7.0 6.7 6.7 6.6 6.5 6.4 6.3 6.2 6.1 5.8 5.7 5.7 5.6 5.5 5.4 5.4 5.4 5.6 5.5 5.4 5.4 5.5 5.5 5.5 5.4 5.5 5.6 5.7 5.9 6.0 6.2 6.3 6.3 6.3 6.5 6.5 6.6
5.8 5.5 6.2 5.7 5.0 5.3 5.5 5.0 5.4 5.9 6.6 7.0 7.0 6.8 6.7 6.7 6.8 6.8 6.6 6.5 6.3 6.0 5.8 5.7 5.6 5.5 5.5 5.4 5.5 5.5 5.4 5.3 5.4 5.5 5.5 5.5 5.6 5.6 5.7 5.9 5.9 6.0 6.0 6.0 6.2 6.3 6.4 6.4 6.4
6.0 5.8 6.5 6.0 6.3 6.4 4.8 4.6 5.2 6.5 6.5 7.0 7.1 7.0 6.8 6.9 6.8 6.7 6.5 6.4 6.2 5.9 5.8 5.7 5.6 5.6 5.3 5.6 5.5 5.4 5.4 5.5 5.5 5.5 5.6 5.5 5.5 5.8 5.9 6.0 5.9 5.8 6.0 6.1 6.2 6.2 6.1 5.9 5.7
5.0 5.0 6.1 5.7 5.5 4.9 5.4 5.3 5.4 6.2 6.9 6.9 7.1 7.2 7.2 7.0 6.7 6.6 6.4 6.2 6.0 5.9 5.8 5.6 5.4 5.5 6.0 5.9 5.4 5.4 5.5 5.6 5.5 5.5 5.6 5.6 5.7 5.7 5.7 5.8 5.9 5.9 6.0 6.0 5.9 5.7 5.5 5.3 5.2
5.5 5.4 5.2 5.1 5.4 5.7 6.5 6.2 5.9 6.1 6.7 6.8 7.0 7.2 7.0 6.9 6.8 6.6 6.4 6.2 6.0 5.8 5.8 5.9 6.0 6.2 6.1 5.7 5.4 5.2 5.4 5.4 5.5 5.5 5.4 5.5 5.5 5.6 5.6 5.7 5.9 5.8 5.8 5.7 5.6 5.4 5.3 5.2 5.2
5.7 4.9 5.5 5.9 6.1 6.6 6.3 6.5 6.0 5.9 6.4 6.8 6.9 6.9 6.7 6.6 6.5 6.3 6.1 5.9 5.7 5.6 5.8 6.2 6.4 6.0 5.7 5.5 5.3 5.0 5.2 5.4 5.4 5.4 5.3 5.5 5.5 5.5 5.7 5.8 5.6 5.8 5.6 5.5 5.5 5.3 5.3 5.2 5.1
5.1 5.4 5.2 5.7 5.0 5.7 6.2 5.5 6.3 6.2 6.4 6.5 6.6 6.6 6.5 6.4 6.3 6.0 5.7 5.6 5.8 5.9 6.0 5.9 5.8 5.6 5.3 5.1 5.1 5.2 5.3 5.2 5.2 5.3 5.2 5.5 5.4 5.4 5.7 5.7 5.7 5.5 5.3 5.4 5.4 5.3 5.2 5.2 5.1
Wind_Speed
12 7 6 4 4 1 5 5 2 4 6 7 5 8 12 14 10 5 4 7 5 7 15 15 13 15 14 12 11 11 11 10 10 10 9 9 8 8 11 12 12 14 14 15 15 14 14 13 12
9 6 4 3 4 6 6 5 6 7 7 3 3 3 5 12 11 8 5 3 4 7 12 15 13 17 14 13 11 10 10 10 9 8 8 8 8 11 10 10 11 13 13 13 15 14 14 14 12
6 5 4 3 3 5 6 4 7 7 4 1 3 4 3 6 10 5 7 3 3 8 10 13 14 12 13 15 11 10 10 9 8 8 7 6 7 8 8 8 12 13 13 13 13 13 14 14 13
3 4 4 6 3 4 6 6 7 7 4 1 2 8 7 10 5 6 6 4 4 7 8 15 12 11 12 11 11 10 10 10 9 8 7 7 7 6 6 6 12 11 13 15 14 14 14 14 13
4 3 3 2 4 4 3 5 3 4 4 5 1 5 6 7 8 8 7 5 5 6 5 9 10 8 10 10 11 11 9 8 8 8 7 8 8 8 9 10 8 11 14 14 14 14 15 14 13
4 3 4 6 5 6 4 4 3 2 3 5 1 4 7 6 7 6 7 8 7 6 4 6 9 6 6 9 9 11 11 9 7 7 6 6 7 8 8 8 12 12 13 13 13 13 13 14 13
5 5 4 2 8 7 6 4 5 4 5 4 2 1 8 8 5 4 5 7 8 7 5 4 4 10 8 7 9 9 10 10 9 6 5 5 6 7 7 8 9 11 12 12 12 12 12 12 12
3 4 4 6 8 8 7 6 1 3 6 3 3 2 8 6 4 2 4 6 7 7 7 5 2 2 6 10 11 9 7 7 8 6 5 7 9 10 9 10 10 10 10 11 11 10 10 10 10
3 4 6 5 7 5 7 7 4 1 3 2 3 5 5 4 1 3 3 4 4 5 6 6 5 3 2 4 3 6 7 3 4 6 7 7 9 10 9 8 11 12 10 8 7 9 8 7 7
4 4 2 3 2 4 8 6 5 5 6 5 5 6 4 5 4 3 2 3 5 6 6 6 6 5 3 4 5 6 8 9 10 11 11 12 8 4 7 9 8 11 9 8 8 6 4 5 6
0 5 2 4 3 1 5 4 3 6 7 2 6 7 5 5 6 5 5 6 7 7 6 7 7 7 5 5 6 5 4 5 5 8 5 5 4 7 8 8 7 7 7 5 5 3 8 7 7
5 1 1 2 3 2 4 1 5 7 3 7 6 7 5 5 6 6 5 6 7 7 8 9 9 7 6 5 5 2 1 2 3 3 5 3 3 4 5 5 4 3 4 4 3 4 5 5 6
5 3 2 3 3 4 2 8 8 7 7 7 7 6 6 5 4 4 5 5 6 7 8 8 8 6 4 0 2 5 9 11 12 13 13 10 7 4 4 6 3 3 1 1 3 3 4 5 5
2 3 4 5 8 7 7 10 3 7 12 8 7 6 4 5 5 4 6 6 7 7 8 8 7 6 4 6 14 10 13 14 15 15 15 14 12 10 9 8 8 9 7 7 8 5 3 4 4
2 6 8 11 9 5 7 10 14 7 10 10 9 6 5 5 5 5 5 5 7 6 9 9 9 11 12 13 14 13 13 14 14 13 15 16 13 11 12 9 9 9 9 9 7 6 4 2 3
4 4 7 7 8 3 7 10 7 10 12 12 10 7 5 4 3 4 4 4 5 6 8 8 8 11 15 15 14 15 16 16 15 15 17 17 16 15 14 12 11 12 11 10 9 5 3 3 3
8 10 9 5 7 5 11 5 6 10 12 12 10 9 7 6 4 3 3 3 3 5 6 7 8 11 11 14 14 15 16 15 16 17 15 17 17 16 14 12 10 10 9 8 5 5 3 3 4
9 11 9 10 5 7 10 14 7 11 13 12 11 9 8 7 4 3 4 4 4 6 6 7 7 10 11 12 12 13 13 14 15 16 14 15 15 14 12 13 13 11 10 8 6 6 5 6 6
8 9 13 9 3 4 13 15 14 13 14 15 15 12 10 9 6 5 4 5 6 7 6 7 8 9 7 6 7 6 8 9 10 15 16 15 15 15 14 13 13 13 8 9 10 6 7 7 9
12 13 16 14 3 4 12 17 16 16 17 19 17 14 12 10 9 7 6 6 6 7 7 6 6 6 6 6 8 6 8 9 12 14 17 18 18 17 17 14 12 13 8 9 10 9 5 6 8
14 15 15 14 2 11 13 20 24 24 21 17 10 12 12 12 11 9 8 8 8 8 7 6 6 7 7 9 9 9 10 10 8 8 9 16 18 18 17 17 14 14 12 7 8 9 10 6 6
15 13 13 12 7 10 4 9 9 7 13 13 12 12 13 12 10 10 9 8 8 7 6 7 7 8 8 9 9 10 7 9 8 8 10 13 16 17 17 16 15 14 12 8 8 11 7 7 6
8 2 6 9 11 13 16 8 11 16 17 16 14 14 14 13 12 12 10 8 7 7 7 7 7 7 6 6 8 8 11 8 8 8 11 11 14 15 16 15 15 14 12 12 11 8 8 6 5
9 5 3 3 6 9 17 16 9 10 8 12 14 15 16 15 14 12 10 9 8 7 7 7 9 9 9 8 8 11 11 11 8 8 7 7 7 11 14 14 13 12 11 10 10 10 10 6 6
12 8 4 5 6 8 2 12 15 6 7 6 16 18 18 16 15 14 13 11 9 9 8 7 9 9 9 10 10 11 11 10 11 9 7 7 6 6 8 10 10 9 10 9 8 8 7 6 5
20 16 6 6 6 4 2 8 6 3 8 5 11 16 16 16 14 14 13 11 10 9 9 9 9 10 9 9 10 9 10 7 7 7 6 6 6 5 9 9 9 9 8 8 7 7 6 7 4
7 12 10 4 2 4 7 10 8 7 8 9 11 16 18 17 16 16 14 12 12 10 10 10 10 10 10 10 9 9 8 8 8 9 9 6 10 9 8 8 8 7 7 7 6 5 3 4 4
9 9 5 6 5 8 10 14 10 9 15 15 15 17 17 17 17 16 15 14 13 12 11 10 10 10 10 9 8 8 9 9 8 9 7 7 9 9 8 7 7 6 7 8 7 5 5 5 5
8 9 9 5 8 5 6 9 9 15 16 19 17 17 19 19 17 16 14 14 13 12 11 11 11 11 10 9 9 8 8 8 8 7 7 8 9 9 7 6 6 6 5 5 5 4 4 5 4
16 14 20 7 6 5 6 14 3 5 12 15 17 16 17 18 16 15 15 15 14 13 12 12 10 9 9 10 10 8 9 8 7 8 7 10 7 8 7 6 5 4 2 2 2 2 2 4 6
Wind_Direction
295 303 289 258 235 189 124 97 62 105 105 51 57 31 65 41 21 61 90 95 57 148 143 157 157 142 140 137 133 126 118 116 111 110 104 96 91 97 98 89 96 88 76 69 60 51 46 43 41
310 309 245 284 238 161 105 117 107 68 74 95 105 143 95 80 58 95 123 88 43 161 157 161 159 145 145 141 134 133 134 131 125 118 110 105 98 109 105 100 102 89 76 65 59 48 41 39 36
284 283 266 273 295 92 124 144 111 94 82 158 119 0 16 56 52 62 38 84 77 141 161 143 157 157 154 148 147 146 142 139 135 128 119 114 108 106 102 107 92 85 74 63 54 45 41 38 33
282 207 221 255 119 68 101 121 114 129 113 127 340 96 99 46 44 40 53 47 79 123 169 131 157 172 167 154 159 160 156 154 149 141 138 129 118 110 100 114 101 83 73 63 51 44 40 39 40
236 252 227 167 121 115 110 97 132 150 107 111 267 114 85 57 69 57 58 48 70 106 151 142 164 191 186 183 181 175 172 167 160 156 158 137 128 121 112 88 81 88 73 66 55 47 40 38 37
234 278 234 193 152 140 137 126 159 163 129 115 187 132 79 77 55 57 52 61 61 91 106 137 170 209 221 208 213 193 186 183 183 169 169 155 138 125 108 95 88 88 82 75 63 55 47 45 41
280 251 268 238 162 166 154 150 200 155 154 95 23 211 120 80 45 66 73 75 72 64 85 115 173 193 231 242 229 227 207 191 201 189 162 159 152 126 104 97 92 91 87 84 71 60 49 46 44
278 267 224 213 179 188 145 171 110 256 108 112 358 172 159 56 19 143 92 77 65 58 48 37 45 342 226 230 228 237 254 241 201 183 172 169 169 150 139 126 103 98 96 103 90 74 61 54 47
301 242 217 197 203 167 148 187 142 56 240 110 41 30 53 28 63 151 165 99 69 48 33 24 11 345 282 256 261 252 258 277 235 222 209 197 209 181 167 121 124 121 117 114 111 105 87 72 62
268 264 195 17 163 180 164 209 168 217 201 180 136 103 77 73 80 99 58 27 24 21 16 6 352 337 303 225 235 240 237 231 223 226 212 212 224 190 158 137 143 131 136 134 126 115 106 59 36
171 289 122 146 114 117 161 202 211 234 238 248 218 147 105 85 72 67 56 40 14 0 11 4 351 335 302 244 219 202 220 229 248 246 242 208 148 132 134 140 150 139 156 143 123 54 6 46 42
234 182 185 124 146 175 201 306 240 243 46 84 82 104 117 87 66 44 32 19 10 6 7 4 356 341 331 302 223 226 145 249 247 52 32 30 149 147 131 123 155 157 143 116 103 71 52 39 58
245 179 202 157 172 240 313 247 260 247 130 121 115 122 102 85 63 52 28 35 20 14 11 9 7 357 350 324 125 94 51 51 49 49 44 32 28 39 70 52 60 58 65 14 144 100 66 23 16
29 231 228 221 227 228 232 247 245 235 146 159 161 132 109 78 47 54 30 24 18 13 18 16 10 342 131 109 74 71 74 70 59 48 39 42 47 45 46 54 51 49 43 45 53 48 62 64 358
261 264 232 230 219 236 219 245 228 196 169 179 173 158 118 75 60 48 34 28 14 20 31 19 17 34 58 61 62 61 77 81 77 69 54 50 45 69 70 59 50 41 38 58 69 61 46 23 15
245 249 251 109 171 161 204 266 160 150 174 180 177 164 148 103 78 57 38 33 34 44 42 36 52 62 65 67 60 63 60 63 57 57 52 50 52 64 63 63 53 42 49 44 47 22 50 21 4
209 262 212 183 197 151 206 273 140 176 191 183 185 174 171 157 133 85 73 65 62 74 80 77 81 90 92 84 81 75 69 65 62 54 48 53 60 60 65 61 61 66 64 54 45 50 42 17 358
265 226 246 255 146 219 221 249 175 193 208 208 197 184 188 181 166 153 133 115 103 99 96 103 104 105 109 108 107 104 96 85 80 77 68 59 54 58 67 65 55 48 47 39 29 38 45 21 353
293 285 274 276 110 272 254 262 260 189 213 222 214 203 198 187 171 161 137 130 121 114 109 125 125 126 116 103 93 85 93 87 82 74 66 70 72 67 61 56 52 55 49 38 29 29 26 25 358
244 259 262 271 142 253 273 264 260 250 209 223 219 209 202 178 175 155 142 132 122 124 119 115 126 143 139 129 118 109 103 94 95 84 76 71 66 63 71 70 58 53 57 46 35 28 37 42 27
234 243 260 272 169 234 276 269 250 244 244 223 244 242 195 189 174 161 154 143 136 139 135 137 134 124 109 113 113 110 111 107 98 83 75 69 72 71 69 70 68 62 60 56 41 33 31 35 36
248 231 255 266 262 270 167 282 262 230 210 217 220 212 188 184 171 158 155 152 136 134 127 122 118 117 125 139 141 133 119 114 103 98 89 77 71 72 70 71 69 65 58 54 48 43 44 32 32
260 48 237 251 258 274 253 267 267 241 225 211 207 202 196 181 172 163 154 135 124 136 130 131 129 125 122 116 122 112 112 111 111 106 101 91 79 73 73 70 69 64 58 52 49 41 38 39 39
128 113 110 224 251 252 234 226 256 208 228 234 176 188 182 178 172 162 148 145 138 130 131 135 131 120 115 116 119 121 128 129 129 124 113 102 93 78 70 69 68 70 70 62 55 49 41 31 42
200 176 239 237 212 250 109 216 248 184 148 183 179 181 179 177 173 166 163 163 151 146 140 133 131 122 121 124 122 125 126 129 128 127 122 120 106 94 86 86 81 74 71 67 64 58 52 38 37
197 201 207 249 228 255 70 230 236 249 108 116 177 175 173 177 179 174 170 164 157 154 157 152 145 134 134 129 125 123 127 128 119 117 116 116 118 112 110 96 86 75 65 59 57 54 42 26 19
179 222 255 284 187 272 217 243 263 160 176 168 166 171 178 183 184 179 172 169 166 171 170 165 158 152 148 142 139 135 130 131 127 124 125 128 124 122 121 113 96 86 72 58 48 50 44 14 4
217 162 179 218 229 240 249 249 237 212 202 182 178 184 185 186 185 181 178 178 176 177 175 173 171 166 153 153 148 143 138 134 139 137 135 136 132 137 122 108 101 83 64 43 33 33 27 7 359
182 208 224 249 228 249 265 250 191 204 197 189 186 187 185 187 186 183 182 182 179 178 178 182 181 172 166 164 153 144 145 151 153 149 148 149 145 140 124 115 99 76 60 44 32 23 2 349 336
238 218 207 219 190 244 270 260 147 185 183 177 187 183 185 188 185 182 182 180 181 185 183 185 185 180 177 170 164 164 162 164 167 165 160 155 145 137 125 115 104 92 78 48 12 346 332 324 316